Starlink 5653

operational
NORAD ID: 55345 Int'l Des: 2023-013 Owner: SPXS Country: US Constellation: starlink
LEOCIRCULAR

关于 Starlink 5653

正在加载描述...

实时位置

正在加载3D地球...

即将过境

高度历史

Altitude vs Time

uPlot chart will show altitude changes over time

两行轨道根数

1 55345U 23013Q 25258.15591938 .00000445 00000-0 47990-4 0 9990
2 55345 43.0025 161.1893 0000997 273.2718 86.8010 15.02536622145456
Epoch: Sep 15, 2025 • Age: 19 hours

当前状态

高度 569.2 km
速度 7.58 km/s
星下点 -36.94°S, 129.24°E
发射日期 Jan 26, 2023
运行时间 2.6 years
类型 internet

技术详情

分类 Payload
质量 305.00 kg
干质量 290.00 kg
总质量 305.00 kg
长度 0.20 m
直径 2.80 m
跨度 9.00 m
形状 Box + pan
制造商 SPXS
平台类型 Starlink
阶段状态 In Orbit
所有者/国家 SPXS/US

大型星座

Loading constellations...